Change the Weather History Date:

Monday, March 4, 2013

  Actual Average Record
Temperature  
Mean Temperature 20 °F -  
Max Temperature 23 °F 27 °F 49 °F (1973)
Min Temperature 17 °F 8 °F -24 °F (1972)
Degree Days  
Heating Degree Days 45    
Moisture  
Dew Point 19 °F    
Average Humidity 92    
Maximum Humidity 100    
Minimum Humidity 86    
Precipitation  
Precipitation 1.40 in - - ()
Sea Level Pressure  
Sea Level Pressure 29.81 in    
Wind  
Wind Speed 25 mph (ENE)    
Max Wind Speed 31 mph    
Max Gust Speed 38 mph    
Visibility 1 miles    
Events Rain , Snow    
Averages and records for this station are not official NWS values.
T = Trace of Precipitation, MM = Missing Value Source: NWS Daily Summary

Daily Weather History Graph

Daily Weather History Graph

Search for Another Location

Airport or City:

Trip Planner

Search our weather history database for the weather conditions in past years. The results will help you decide how hot, cold, wet, or windy it might be!

Date:

Astronomy

Mar. 04, 2013 Rise Set
Actual Time 7:14 AM CST 6:29 PM CST
Civil Twilight 6:43 AM CST 7:00 PM CST
Nautical Twilight 6:07 AM CST 7:36 PM CST
Astronomical Twilight 5:31 AM CST 8:13 PM CST
Moon 1:46 AM CST (3/4) 10:51 AM CST (3/4)
Length of Visible Light 12h 16m
Length of Day
11h 14m
Waning Gibbous, 52% of the Moon is Illuminated
Mar 4
Waning Gibbous
Mar 4
Last Quarter
Mar 11
New
Mar 19
First Quarter
Mar 27
Full

Hourly Weather History & Observations

Time (CST) Temp. Windchill Dew Point Humidity Pressure Visibility Wind Dir Wind Speed Gust Speed Precip Events Conditions
12:15 AM 23.0 °F 6.9 °F 21.2 °F 93% 29.72 in 3.0 mi East 24.2 mph 31.1 mph N/A   Overcast
12:35 AM 23.0 °F 8.0 °F 21.2 °F 93% 29.72 in 2.0 mi ESE 20.7 mph - N/A Rain Light Freezing Rain
12:55 AM 23.0 °F 6.9 °F 23.0 °F 100% 29.71 in 1.2 mi East 24.2 mph 32.2 mph N/A Rain Light Freezing Rain
1:15 AM 23.0 °F 6.9 °F 21.2 °F 93% 29.71 in 1.5 mi East 24.2 mph 31.1 mph N/A Rain Light Freezing Rain
1:55 AM 23.0 °F 7.2 °F 21.2 °F 93% 29.71 in 1.5 mi East 23.0 mph - N/A Rain Light Freezing Rain
2:15 AM 23.0 °F 8.3 °F 21.2 °F 93% 29.71 in 1.8 mi East 19.6 mph - N/A Rain Light Freezing Rain
2:35 AM 23.0 °F 8.0 °F 21.2 °F 93% 29.72 in 2.0 mi East 20.7 mph 26.5 mph N/A Rain Light Freezing Rain
2:55 AM 23.0 °F 8.0 °F 21.2 °F 93% 29.72 in 1.2 mi East 20.7 mph - 0.01 in Snow Light Snow
3:15 AM 23.0 °F 7.6 °F 21.2 °F 93% 29.71 in 0.8 mi East 21.9 mph - 0.03 in Snow Light Snow
3:35 AM 23.0 °F 7.2 °F 21.2 °F 93% 29.70 in 0.8 mi East 23.0 mph 28.8 mph 0.09 in Snow Light Snow
3:55 AM 23.0 °F 5.7 °F 21.2 °F 93% 29.68 in 1.8 mi East 28.8 mph - 0.10 in Rain Light Freezing Rain
4:15 AM 23.0 °F 6.3 °F 19.4 °F 86% 29.68 in 1.5 mi East 26.5 mph - N/A Rain Light Freezing Rain
4:35 AM 23.0 °F 5.7 °F 21.2 °F 93% 29.67 in 1.0 mi East 28.8 mph 33.4 mph 0.01 in Snow Light Snow
4:55 AM 23.0 °F 6.0 °F 21.2 °F 93% 29.67 in 0.8 mi East 27.6 mph 34.5 mph 0.03 in Snow Light Snow
5:15 AM 23.0 °F 6.9 °F 21.2 °F 93% 29.68 in 0.8 mi East 24.2 mph 33.4 mph 0.02 in Snow Light Snow
5:35 AM 21.2 °F 4.5 °F 19.4 °F 93% 29.69 in 0.5 mi East 24.2 mph 29.9 mph 0.13 in Snow Snow
5:55 AM 21.2 °F 4.2 °F 19.4 °F 93% 29.69 in 0.5 mi East 25.3 mph - 0.22 in Snow Snow
6:15 AM 21.2 °F 4.2 °F 19.4 °F 93% 29.69 in 0.8 mi East 25.3 mph 31.1 mph 0.02 in Snow Light Snow
6:35 AM 21.2 °F 3.9 °F 19.4 °F 93% 29.69 in 0.5 mi East 26.5 mph - 0.07 in Snow Snow
6:55 AM 21.2 °F 3.0 °F 19.4 °F 93% 29.68 in 0.5 mi East 29.9 mph 33.4 mph 0.12 in Snow Snow
7:15 AM 21.2 °F 3.5 °F 19.4 °F 93% 29.68 in 0.2 mi East 27.6 mph 34.5 mph 0.02 in Snow Heavy Snow
7:35 AM 21.2 °F 3.3 °F 19.4 °F 93% 29.68 in 0.2 mi East 28.8 mph - 0.05 in Snow Heavy Snow
7:55 AM 21.2 °F 3.3 °F 19.4 °F 93% 29.68 in 0.2 mi East 28.8 mph - 0.09 in Snow Heavy Snow
8:15 AM 21.2 °F 3.3 °F 19.4 °F 93% 29.69 in 0.2 mi East 28.8 mph 35.7 mph 0.04 in Snow Heavy Snow
8:35 AM 21.2 °F 3.3 °F 19.4 °F 93% 29.69 in 0.2 mi East 28.8 mph 34.5 mph 0.14 in Snow Heavy Snow
8:55 AM 21.2 °F 3.0 °F 19.4 °F 93% 29.69 in 0.2 mi East 29.9 mph 36.8 mph 0.19 in Snow Heavy Snow
9:15 AM 21.2 °F 3.0 °F 19.4 °F 93% 29.69 in 0.2 mi East 29.9 mph 36.8 mph 0.02 in Snow Heavy Snow
9:35 AM 21.2 °F 2.7 °F 19.4 °F 93% 29.69 in 0.2 mi East 31.1 mph 38.0 mph 0.04 in Snow Heavy Snow
9:55 AM 21.2 °F 3.5 °F 19.4 °F 93% 29.70 in 0.2 mi East 27.6 mph 32.2 mph 0.06 in Snow Heavy Snow
10:15 AM 21.2 °F 2.7 °F 19.4 °F 93% 29.69 in 0.2 mi ENE 31.1 mph 35.7 mph 0.01 in Snow Heavy Snow
10:35 AM 21.2 °F 3.3 °F 19.4 °F 93% 29.70 in 0.2 mi ENE 28.8 mph 34.5 mph 0.02 in Snow Heavy Snow
10:55 AM 21.2 °F 3.5 °F 19.4 °F 93% 29.71 in 0.5 mi ENE 27.6 mph - 0.03 in Rain Light Freezing Rain
11:15 AM 21.2 °F 3.5 °F 19.4 °F 93% 29.72 in 0.5 mi ENE 27.6 mph 33.4 mph N/A Rain Light Freezing Rain
11:35 AM 21.2 °F 3.5 °F 19.4 °F 93% 29.72 in 0.2 mi ENE 27.6 mph - 0.02 in Snow Heavy Snow
11:55 AM 21.2 °F 3.5 °F 19.4 °F 93% 29.73 in 0.8 mi ENE 27.6 mph 35.7 mph 0.03 in Rain Light Freezing Rain
12:15 PM 21.2 °F 3.9 °F 19.4 °F 93% 29.74 in 0.8 mi ENE 26.5 mph - N/A Rain Light Freezing Rain
12:55 PM 21.2 °F 3.9 °F 19.4 °F 93% 29.74 in 0.8 mi ENE 26.5 mph 32.2 mph N/A Rain Light Freezing Rain
1:15 PM 21.2 °F 3.9 °F 19.4 °F 93% 29.74 in 1.0 mi ENE 26.5 mph 31.1 mph N/A Rain Light Freezing Rain
1:35 PM 21.2 °F 4.2 °F 19.4 °F 93% 29.75 in 0.8 mi ENE 25.3 mph - N/A Rain Light Freezing Rain
1:55 PM 21.2 °F 4.9 °F 19.4 °F 93% 29.76 in 1.2 mi ENE 23.0 mph 32.2 mph 0.01 in Rain Light Freezing Rain
2:15 PM 23.0 °F 6.6 °F 19.4 °F 86% 29.77 in 2.0 mi ENE 25.3 mph 28.8 mph N/A Rain Light Freezing Rain
2:35 PM 23.0 °F 7.2 °F 19.4 °F 86% 29.78 in 1.8 mi ENE 23.0 mph 31.1 mph N/A Rain Light Freezing Rain
2:55 PM 23.0 °F 6.3 °F 19.4 °F 86% 29.79 in 1.8 mi ENE 26.5 mph - 0.01 in Rain Light Freezing Rain
3:15 PM 23.0 °F 7.2 °F 19.4 °F 86% 29.80 in 1.0 mi ENE 23.0 mph 33.4 mph N/A Rain Light Freezing Rain
3:35 PM 23.0 °F 6.9 °F 19.4 °F 86% 29.81 in 1.2 mi ENE 24.2 mph - 0.02 in   Overcast
3:55 PM 23.0 °F 7.2 °F 19.4 °F 86% 29.82 in 1.5 mi ENE 23.0 mph 29.9 mph 0.02 in Rain Light Freezing Rain
4:15 PM 23.0 °F 7.2 °F 19.4 °F 86% 29.84 in 2.0 mi NE 23.0 mph - N/A Rain Light Freezing Rain
4:35 PM 23.0 °F 6.9 °F 19.4 °F 86% 29.86 in 2.5 mi NE 24.2 mph 29.9 mph N/A Rain Light Freezing Rain
4:55 PM 23.0 °F 7.2 °F 19.4 °F 86% 29.88 in 2.5 mi NE 23.0 mph 29.9 mph 0.01 in Snow Light Snow
5:15 PM 23.0 °F 8.0 °F 19.4 °F 86% 29.90 in 2.0 mi NE 20.7 mph - 0.01 in Snow Light Snow
5:35 PM 21.2 °F 4.2 °F 19.4 °F 93% 29.90 in 1.2 mi NE 25.3 mph - 0.03 in Snow Light Snow
5:55 PM 21.2 °F 3.9 °F 19.4 °F 93% 29.92 in 1.0 mi NE 26.5 mph - 0.05 in Snow Light Snow
6:15 PM 21.2 °F 4.9 °F 19.4 °F 93% 29.94 in 0.8 mi NE 23.0 mph 31.1 mph 0.02 in Snow Light Snow
6:35 PM 21.2 °F 4.5 °F 19.4 °F 93% 29.95 in 1.2 mi NE 24.2 mph - 0.05 in Snow Light Snow
6:55 PM 21.2 °F 4.9 °F 19.4 °F 93% 29.97 in 2.5 mi NE 23.0 mph 27.6 mph 0.07 in Snow Light Snow
7:15 PM 21.2 °F 5.2 °F 19.4 °F 93% 29.99 in 3.0 mi NNE 21.9 mph - N/A Snow Light Snow
7:35 PM 21.2 °F 5.2 °F 19.4 °F 93% 30.01 in 2.5 mi NE 21.9 mph - 0.02 in Snow Light Snow
7:55 PM 21.2 °F 5.6 °F 19.4 °F 93% 30.02 in 1.5 mi NNE 20.7 mph - 0.08 in Snow Light Snow
8:35 PM 19.4 °F 2.8 °F 19.4 °F 100% 30.05 in 1.0 mi NNE 21.9 mph - 0.07 in Snow Light Snow
8:55 PM 19.4 °F 3.2 °F 19.4 °F 100% 30.06 in 1.0 mi NNE 20.7 mph - 0.13 in Rain Light Freezing Rain
9:15 PM 19.4 °F 2.8 °F 17.6 °F 93% 30.07 in 1.0 mi NNE 21.9 mph - 0.03 in Rain Light Freezing Rain
9:35 PM 19.4 °F 2.8 °F 17.6 °F 93% 30.09 in 1.8 mi NNE 21.9 mph - 0.05 in Rain Light Freezing Rain
9:55 PM 19.4 °F 2.8 °F 17.6 °F 93% 30.09 in 3.0 mi NNE 21.9 mph 26.5 mph 0.06 in Rain Light Freezing Rain
10:15 PM 17.6 °F 0.9 °F 15.8 °F 93% 30.10 in 2.5 mi NNE 20.7 mph - 0.01 in Rain Light Freezing Rain
10:35 PM 17.6 °F 1.3 °F 15.8 °F 93% 30.11 in 3.0 mi NNE 19.6 mph - 0.02 in Rain Light Freezing Rain
10:55 PM 17.6 °F 1.7 °F 15.8 °F 93% 30.12 in 3.0 mi NNE 18.4 mph - 0.03 in Rain Light Freezing Rain
11:15 PM 17.6 °F 1.7 °F 15.8 °F 93% 30.14 in 3.0 mi NNE 18.4 mph - 0.01 in Rain Light Freezing Rain
11:55 PM 17.6 °F 1.7 °F 15.8 °F 93% 30.14 in 8.0 mi NNE 18.4 mph - 0.05 in Rain Light Freezing Rain